STARLINK-35229

Last updated on Tue Oct 14 2025 00:02:05 GMT+0000 (Coordinated Universal Time)

1 65600U 25207J 25286.60696852 .00052203 00000+0 13303-2 0 9991 2 65600 97.6059 350.0222 0001530 9.8152 350.3123 15.39373015 5899

Satellite not in orbit

STARLINK-35229